Location: *
(40.7765°S, 106.5327°E)
Time: 15:20:56
(UTC+00:00)

USA 306 - Pass Details

Date: 26 May 2022
Orbit: 545 x 556 km, 54.0° (Epoch: 20 June)

Event Time Altitude Azimuth Distance (km) Brightness Sun altitude
Rises 10:36:50 0° 225° (SW) 2,750 6.8 -11.1°
Reaches altitude 10° 10:39:24 10° 212° (SSW) 1,849 5.7 -11.6°
Maximum altitude 10:42:54 25° 155° (SSE) 1,148 4.1 -12.2°
Enters shadow 10:44:42 19° 118° (ESE) 1,363 4.2 -12.5°
